Terminal Aerodrome Forecast
Issued by NWS Corpus Christi, TX

Home | Current Version | Previous Version | Text Only | Print | Product List | Glossary On
Versions: 1 2 3 4 5 6 7 8 9 10 11 12 13 14 15 16
789
FTUS44 KCRP 270522
TAFVCT
TAF
KVCT 270522Z 2706/2806 13006KT 5SM BR SCT007 OVC016
      TEMPO 2706/2709 3SM BR BKN007
     FM270900 16006KT 2SM BR OVC004
      TEMPO 2712/2714 FEW004 OVC009
     FM271400 15006KT 6SM BR FEW004 BKN009
     FM271700 17012KT P6SM OVC015
     FM280100 15010KT P6SM OVC007=

USA.gov is the U.S. government's official web portal to all federal, state and local government web resources and services.